TimeEST,TemperatureF,Dew PointF,Humidity,Sea Level PressureIn,VisibilityMPH,Wind Direction,Wind SpeedMPH,Gust SpeedMPH,PrecipitationIn,Events,Conditions,WindDirDegrees,DateUTC
12:54 AM,27.0,21.9,81,30.10,6.0,West,19.6,35.7,0.00,,Overcast,280,2013-01-18 05:54:00
12:58 AM,26.6,21.2,80,30.02,1.2,West,19.6,29.9,0.00,Snow,Light Snow,270,2013-01-18 05:58:00
1:02 AM,26.6,23.0,86,30.02,0.5,West,17.3,29.9,0.00,Fog-Snow,Snow,280,2013-01-18 06:02:00
1:05 AM,26.6,23.0,86,30.03,0.2,West,16.1,28.8,0.00,Fog-Snow,Heavy Snow,280,2013-01-18 06:05:00
1:13 AM,26.6,23.0,86,30.03,0.2,WNW,20.7,29.9,0.00,Fog-Snow,Snow,290,2013-01-18 06:13:00
1:21 AM,26.6,21.2,80,30.03,1.0,WNW,19.6,29.9,0.00,Snow,Light Snow,290,2013-01-18 06:21:00
1:30 AM,26.6,21.2,80,30.04,3.0,WNW,18.4,29.9,0.00,Snow,Light Snow,290,2013-01-18 06:30:00
1:41 AM,24.8,19.4,80,30.05,2.0,West,21.9,29.9,0.00,,Overcast,280,2013-01-18 06:41:00
1:51 AM,24.8,17.6,74,30.05,4.0,WNW,21.9,32.2,0.00,,Overcast,290,2013-01-18 06:51:00
1:54 AM,25.0,18.0,75,30.14,4.0,WNW,20.7,29.9,0.00,,Overcast,300,2013-01-18 06:54:00
2:14 AM,24.8,17.6,74,30.08,1.8,WNW,24.2,33.4,0.00,Snow,Light Snow,300,2013-01-18 07:14:00
2:31 AM,21.2,17.6,86,30.09,3.0,WNW,19.6,29.9,0.00,Snow,Light Snow,300,2013-01-18 07:31:00
2:42 AM,21.2,17.6,86,30.10,1.8,NW,24.2,33.4,0.00,Snow,Light Snow,310,2013-01-18 07:42:00
2:54 AM,21.9,17.1,82,30.19,3.0,WNW,21.9,27.6,0.00,Snow,Light Snow,300,2013-01-18 07:54:00
3:06 AM,21.2,15.8,80,30.11,2.0,WNW,17.3,28.8,0.00,Snow,Light Snow,300,2013-01-18 08:06:00
3:23 AM,21.2,15.8,80,30.12,5.0,WNW,20.7,25.3,0.00,Snow,Light Snow,300,2013-01-18 08:23:00
3:34 AM,21.2,15.8,80,30.12,2.0,NW,21.9,29.9,0.00,Snow,Light Snow,320,2013-01-18 08:34:00
3:43 AM,21.2,15.8,80,30.13,1.0,NW,16.1,29.9,0.00,Snow,Light Snow,310,2013-01-18 08:43:00
3:54 AM,19.9,16.0,85,30.23,0.8,WNW,19.6,31.1,0.00,Snow,Light Snow,300,2013-01-18 08:54:00
4:25 AM,19.4,15.8,86,30.15,0.8,WNW,26.5,35.7,0.00,Snow,Light Snow,300,2013-01-18 09:25:00
4:34 AM,19.4,15.8,86,30.16,0.8,WNW,18.4,29.9,0.00,Snow,Light Snow,300,2013-01-18 09:34:00
4:40 AM,19.4,14.0,80,30.16,2.0,WNW,19.6,27.6,0.00,Snow,Light Snow,300,2013-01-18 09:40:00
4:44 AM,19.4,14.0,80,30.16,3.0,WNW,19.6,26.5,0.00,Snow,Light Snow,290,2013-01-18 09:44:00
4:54 AM,19.0,12.9,77,30.26,8.0,WNW,17.3,-,0.00,Snow,Light Snow,300,2013-01-18 09:54:00
5:12 AM,17.6,12.2,79,30.18,2.0,WNW,18.4,29.9,0.00,Snow,Light Snow,290,2013-01-18 10:12:00
5:26 AM,17.6,12.2,79,30.19,1.8,NW,24.2,29.9,0.00,Snow,Light Snow,310,2013-01-18 10:26:00
5:35 AM,15.8,10.4,79,30.20,0.8,NW,25.3,34.5,0.00,Snow,Light Snow,310,2013-01-18 10:35:00
5:46 AM,15.8,10.4,79,30.21,1.5,WNW,23.0,31.1,0.00,Snow,Light Snow,300,2013-01-18 10:46:00
5:54 AM,15.1,10.0,80,30.32,2.0,WNW,20.7,31.1,0.00,Snow,Light Snow,300,2013-01-18 10:54:00
6:03 AM,15.8,8.6,73,30.22,4.0,WNW,21.9,34.5,0.00,Snow,Light Snow,300,2013-01-18 11:03:00
6:11 AM,15.8,8.6,73,30.23,2.0,WNW,19.6,31.1,0.00,Snow,Light Snow,300,2013-01-18 11:11:00
6:33 AM,15.8,8.6,73,30.24,1.2,WNW,24.2,35.7,0.00,Snow,Light Snow,300,2013-01-18 11:33:00
6:54 AM,14.0,8.1,77,30.36,1.5,NW,23.0,38.0,0.00,Snow,Light Snow,310,2013-01-18 11:54:00
7:14 AM,14.0,8.6,79,30.26,0.8,NW,29.9,34.5,0.00,Snow,Light Snow,310,2013-01-18 12:14:00
7:26 AM,14.0,8.6,79,30.27,1.2,NW,25.3,34.5,0.00,Snow,Light Snow,310,2013-01-18 12:26:00
7:41 AM,12.2,6.8,79,30.27,2.0,NW,24.2,33.4,0.00,Snow,Light Snow,310,2013-01-18 12:41:00
7:51 AM,12.2,6.8,79,30.27,1.0,NW,25.3,33.4,0.00,Snow,Light Snow,320,2013-01-18 12:51:00
7:54 AM,12.9,7.0,77,30.38,1.0,NW,23.0,33.4,0.00,Snow,Light Snow,320,2013-01-18 12:54:00
8:25 AM,12.2,5.0,73,30.27,2.0,NW,20.7,33.4,0.00,Snow,Blowing Snow,310,2013-01-18 13:25:00
8:34 AM,12.2,5.0,73,30.28,4.0,NW,19.6,26.5,0.00,Snow,Blowing Snow,320,2013-01-18 13:34:00
8:54 AM,12.9,3.9,67,30.41,10.0,NW,13.8,23.0,0.00,,Clear,310,2013-01-18 13:54:00
9:54 AM,15.1,3.0,59,30.45,10.0,WNW,19.6,26.5,N/A,,Clear,300,2013-01-18 14:54:00
10:54 AM,16.0,5.0,62,30.45,10.0,West,10.4,-,N/A,,Clear,280,2013-01-18 15:54:00
11:54 AM,18.0,5.0,57,30.44,10.0,NW,8.1,-,N/A,,Clear,320,2013-01-18 16:54:00
12:54 PM,19.0,6.1,57,30.42,10.0,WNW,9.2,-,N/A,,Clear,300,2013-01-18 17:54:00
1:54 PM,19.9,7.0,57,30.42,10.0,SW,9.2,-,N/A,,Clear,220,2013-01-18 18:54:00
2:54 PM,21.9,8.1,55,30.41,10.0,SW,8.1,-,N/A,,Clear,230,2013-01-18 19:54:00
3:54 PM,23.0,8.1,53,30.41,10.0,WSW,10.4,-,N/A,,Clear,240,2013-01-18 20:54:00
4:54 PM,24.1,8.1,51,30.39,10.0,SW,8.1,-,N/A,,Clear,220,2013-01-18 21:54:00
5:54 PM,23.0,8.1,53,30.40,10.0,SW,8.1,-,N/A,,Clear,220,2013-01-18 22:54:00
6:54 PM,24.1,9.0,53,30.38,10.0,SSW,11.5,-,N/A,,Clear,210,2013-01-18 23:54:00
7:54 PM,24.1,9.0,53,30.38,10.0,SW,12.7,18.4,N/A,,Clear,220,2013-01-19 00:54:00
8:54 PM,25.0,9.0,51,30.37,10.0,SSW,13.8,-,N/A,,Clear,210,2013-01-19 01:54:00
9:54 PM,26.1,7.0,44,30.35,10.0,SSW,11.5,-,N/A,,Clear,210,2013-01-19 02:54:00
10:54 PM,27.0,6.1,41,30.32,10.0,SSW,11.5,19.6,N/A,,Clear,210,2013-01-19 03:54:00
11:54 PM,28.0,5.0,38,30.30,10.0,SSW,15.0,-,N/A,,Clear,210,2013-01-19 04:54:00